Tracking 17925 objects as of 19-February-2017
HD Live streaming from Space Station
objects crossing your sky now

THORAD AGENA D DEB


10-day predictions


NORAD ID: 4177
Int'l Code: 1969-082AV
Perigee: 858.5 km
Apogee: 1,024.8 km
Inclination: 70.1 °
Period: 103.7 minutes
Semi major axis: 7312 km
RCS: 0.0743 m2 (small)
Launch date: September 30, 1969
Source: United States (US)
Launch site: AIR FORCE WESTERN TEST RANGE (AFWTR)

Note: This is SATELLITE DEBRIS
Your satellite tracking list
Your tracking list is empty





NASA's NSSDC Master Catalog

Two Line Element Set (TLE):
1  4177U 69082AV  17049.82126909 +.00000003 +00000-0 +42401-4 0  9990
2  4177 070.0713 197.6909 0113703 108.3928 252.9578 13.88311101383117
Source of the keplerian elements: AFSPC